Temperature
17 17 17 17 17 17 17 17 17 17 18 18 17 17 17 17 17 17 17 17 17 17 17 16 16 16 16 16 15 15 15 15 15 15 15 15 14 14
17 17 17 17 17 16 16 16 16 16 17 17 17 17 17 16 16 16 16 16 16 16 16 16 16 15 15 15 15 15 15 15 15 15 14 14 14 14
16 16 16 16 16 16 16 16 16 16 16 16 16 16 16 16 16 16 15 16 16 16 16 15 15 15 15 15 15 15 15 15 14 14 14 14 14 14
16 16 16 16 16 16 16 16 16 16 16 16 16 15 15 15 15 15 15 15 15 15 15 15 15 15 15 15 14 14 14 14 14 14 14 14 14 13
16 16 15 15 16 16 16 15 15 15 15 15 15 15 15 15 14 14 14 14 14 14 14 14 14 14 14 14 14 13 13 13 13 13 13 13 13 13
15 15 15 15 15 15 15 15 15 15 15 15 14 14 14 14 14 14 14 13 13 13 13 13 13 13 13 13 13 13 13 13 13 12 12 12 12 12
15 15 15 15 15 15 15 15 15 14 14 14 14 14 13 13 13 13 13 13 13 12 12 12 12 12 12 12 12 12 12 12 12 12 12 11 11 11
15 15 14 15 14 14 14 14 14 14 14 13 13 13 13 13 12 12 12 12 12 12 12 12 11 11 11 11 11 11 11 11 11 11 11 11 11 11
14 14 14 14 14 14 14 14 13 13 13 13 12 12 12 12 12 12 11 11 11 11 11 11 11 11 11 10 11 11 11 10 10 10 10 10 10 10
14 14 13 13 13 13 13 13 12 13 12 12 12 12 12 12 11 11 11 11 11 11 10 10 10 10 10 10 10 10 10 10 10 10 10 10 10 10
13 13 13 13 13 13 12 12 12 12 11 11 11 11 11 11 11 11 11 11 11 10 10 10 10 10 10 10 9 9 9 9 9 9 9 9 9 9
12 12 12 12 12 12 12 11 11 10 10 10 10 10 10 10 10 10 10 11 11 10 9 9 10 10 10 9 9 9 9 9 8 8 8 8 9 8
12 11 11 11 11 11 11 11 10 10 10 10 10 10 10 10 9 9 9 9 9 9 9 9 9 9 9 9 9 9 8 8 8 8 8 8 8 8
11 11 11 10 11 11 10 10 10 10 10 10 10 9 9 9 9 9 9 8 8 8 8 8 8 8 9 9 9 8 8 8 8 7 7 7 7 7
10 10 10 10 10 9 10 9 9 9 9 9 9 9 8 8 8 8 8 8 8 8 8 8 8 8 8 9 8 8 8 8 7 7 7 7 7 7
9 9 9 9 9 9 9 9 8 8 8 8 8 8 8 8 8 8 8 8 8 8 7 7 7 7 8 7 8 8 7 7 7 7 7 6 6 6
9 9 9 9 8 8 8 8 8 8 8 8 8 8 8 8 7 7 7 8 8 8 8 7 7 7 7 7 7 7 7 7 6 6 6 6 6 6
9 9 8 8 8 8 8 7 7 7 7 7 7 7 7 7 7 7 7 7 7 7 7 7 7 7 7 7 6 6 6 6 6 6 6 6 6 6
8 8 8 8 7 7 7 7 7 7 6 7 7 7 7 7 7 7 7 7 7 7 7 7 7 7 7 7 6 6 6 5 6 6 6 6 6 5
8 7 7 7 7 7 7 7 7 6 6 6 6 6 6 6 6 6 6 6 6 6 6 6 6 6 6 6 6 6 5 5 5 5 5 5 5 5
7 7 7 7 7 6 6 6 6 6 6 6 6 6 6 6 6 6 6 6 6 6 6 6 5 5 5 5 6 6 5 5 5 4 4 5 5 5
7 7 6 6 6 6 6 6 6 6 6 6 6 6 6 6 6 6 6 6 6 6 6 6 5 5 6 6 6 6 6 5 5 5 4 4 4 4
6 6 6 6 6 6 6 6 6 6 5 5 5 5 5 5 5 5 5 6 6 6 6 6 6 6 6 6 6 6 5 5 5 5 5 4 4 4
Wind_Speed
7 8 8 7 7 7 7 7 7 7 7 5 5 4 4 4 3 5 5 5 8 8 8 8 8 9 10 10 11 11 11 12 12 12 12 12 13 13
6 6 7 7 6 6 6 6 6 7 7 5 4 4 3 4 3 5 5 5 6 7 7 7 7 7 8 8 8 9 9 9 10 10 11 11 12 12
6 6 7 7 5 5 5 6 6 6 7 7 5 4 3 4 3 3 4 4 4 7 7 6 5 4 5 5 6 6 7 7 7 8 8 9 9 9
5 4 5 5 5 5 4 5 5 5 6 7 5 4 3 3 2 2 2 2 0 5 6 5 4 3 2 2 3 3 4 4 4 5 5 6 6 6
3 3 4 4 4 4 4 4 4 4 4 5 5 3 3 2 2 2 1 1 1 3 5 5 5 4 4 3 2 2 2 1 0 1 2 2 3 3
1 2 3 3 4 4 3 3 3 3 3 3 3 2 2 1 1 1 1 0 1 1 3 3 5 6 5 4 3 3 2 2 2 1 1 1 1 1
1 1 3 4 6 4 3 3 2 2 2 2 2 2 1 1 1 1 1 0 0 0 0 0 1 2 3 4 3 3 3 3 3 2 1 0 0 1
2 2 3 4 6 7 8 7 5 3 2 2 1 1 2 2 2 1 1 1 1 1 1 1 1 1 1 3 5 4 4 4 3 3 2 1 0 1
3 3 3 4 5 5 7 8 9 9 6 3 3 3 3 3 2 2 2 2 2 2 2 2 1 1 1 5 7 6 5 4 3 2 1 1 1 2
5 5 5 5 5 5 7 8 9 9 8 6 6 5 5 5 3 1 1 1 1 1 2 2 2 1 0 3 6 6 5 4 2 2 1 2 2 3
7 8 7 7 9 6 7 8 8 7 10 11 10 8 9 8 6 3 2 1 1 2 3 2 2 2 1 1 4 5 4 3 2 1 1 2 3 5
8 9 11 10 10 8 7 7 7 6 6 7 7 6 7 8 8 6 4 3 2 2 3 3 2 3 1 0 1 1 2 3 3 3 1 2 5 5
7 7 8 11 11 10 8 7 6 4 5 6 6 6 6 6 7 8 7 5 5 4 4 3 3 3 3 2 1 1 2 2 1 1 2 2 2 4
7 7 8 9 10 10 9 7 6 4 5 5 6 6 6 6 7 7 7 7 6 5 6 5 4 4 4 3 3 2 3 4 4 4 4 1 2 3
9 10 9 7 7 9 9 6 4 4 5 5 5 6 5 5 4 4 4 4 3 5 6 6 5 4 4 4 4 4 3 4 4 4 4 4 4 3
8 9 7 6 7 7 6 5 5 6 5 5 5 5 4 4 4 4 4 4 3 3 5 6 6 5 4 4 4 4 4 4 4 4 4 4 4 4
5 6 6 6 6 6 6 6 5 5 5 5 5 4 4 5 4 5 5 5 4 4 4 3 3 3 3 4 4 5 4 4 4 4 4 3 2 3
4 6 6 5 5 5 5 5 5 5 5 5 5 5 5 5 4 4 5 5 5 5 5 5 5 3 2 2 4 5 5 5 5 4 4 4 3 3
5 6 5 5 4 4 4 4 4 5 4 4 4 5 4 4 4 4 5 5 5 5 5 5 5 5 5 4 2 4 6 6 5 5 5 5 4 3
5 5 4 4 4 4 4 4 4 4 3 3 4 4 4 4 4 5 5 6 6 6 5 5 6 6 6 6 5 4 3 5 6 6 5 4 3 1
4 4 4 3 4 4 4 3 3 3 3 3 3 4 4 4 4 5 4 4 5 5 5 5 5 5 5 4 4 4 3 2 2 4 6 6 5 3
4 4 3 3 3 3 3 3 3 3 3 3 4 4 4 4 5 5 5 5 5 5 6 5 4 4 4 5 5 5 4 3 1 4 1 2 5 5
4 3 3 3 3 3 3 3 4 4 4 4 4 4 4 4 5 5 5 5 5 6 6 5 5 4 5 5 5 5 6 5 4 3 1 4 6 6
Wind_Direction
242 243 247 252 251 251 252 255 263 269 264 252 243 241 245 247 241 237 234 195 198 210 219 225 231 236 238 241 244 245 245 246 248 249 251 251 251 252
240 247 252 256 253 254 252 251 250 259 267 278 273 271 270 270 216 228 219 178 183 200 208 216 226 236 241 242 244 246 246 246 246 247 249 251 251 251
238 240 247 254 254 254 253 255 253 250 256 267 276 279 265 272 277 256 246 238 202 182 192 198 205 219 232 236 242 246 246 244 244 245 246 248 249 253
243 253 262 260 255 261 260 257 256 252 253 260 264 272 273 270 271 278 288 277 250 129 147 151 154 165 188 208 225 233 238 236 236 242 243 243 243 247
258 268 275 278 273 271 266 266 267 261 254 257 264 268 273 282 277 268 295 347 0 100 118 125 125 122 114 112 119 127 129 150 175 290 282 269 259 248
282 290 294 292 286 282 272 270 271 271 261 257 266 271 276 294 288 270 293 337 335 42 54 85 119 127 116 110 100 97 98 102 97 81 61 7 322 300
36 22 28 27 25 8 340 329 309 290 281 269 274 295 324 337 311 296 291 293 28 335 313 53 117 115 116 109 86 75 83 91 93 93 85 64 310 283
60 55 59 54 63 66 54 45 29 8 344 339 355 13 357 344 351 331 298 295 308 338 313 324 340 359 44 60 78 89 88 84 79 76 72 66 303 279
64 58 55 58 63 78 80 73 58 50 41 34 47 26 16 9 359 11 8 346 344 342 320 305 323 1 77 80 89 93 92 86 75 59 43 12 325 291
64 58 63 55 45 65 78 71 63 52 52 59 59 44 37 26 21 31 22 86 101 42 339 321 345 332 76 104 112 109 105 100 85 57 358 320 310 297
72 61 61 66 44 53 84 83 76 70 72 73 70 67 59 42 18 19 14 359 24 49 15 332 326 316 261 144 126 143 148 147 146 132 39 340 310 280
81 71 60 57 47 40 75 78 74 66 66 71 71 68 65 60 44 25 11 5 5 29 23 334 331 326 307 26 19 107 158 166 166 154 112 8 336 306
85 79 68 61 59 50 56 66 53 46 70 70 70 63 58 52 47 43 28 18 15 26 17 340 329 325 315 318 323 3 359 357 352 134 146 102 15 344
81 81 80 72 70 62 62 49 25 20 65 65 60 51 47 44 43 42 40 37 32 32 16 355 341 336 323 324 340 349 354 353 352 1 13 67 105 107
82 84 88 89 95 81 68 45 41 54 56 57 56 50 44 37 33 43 52 49 49 43 35 12 354 343 331 336 342 349 342 349 2 2 0 2 14 20
98 110 116 91 84 85 80 61 52 46 41 46 42 41 34 32 25 19 15 11 18 38 43 25 9 352 345 357 350 350 350 349 355 2 359 358 11 21
103 99 89 83 76 71 66 57 52 51 44 39 34 30 27 24 19 14 6 1 3 5 12 15 5 1 8 351 347 352 348 349 353 355 332 341 1 24
87 90 84 78 72 67 64 61 53 45 36 32 30 26 19 13 9 8 2 1 3 1 1 359 349 334 306 61 17 348 345 345 346 342 322 325 342 23
86 84 79 72 66 61 55 51 49 45 27 23 20 16 8 3 1 3 5 358 356 355 356 355 350 341 334 344 26 21 348 340 336 339 341 337 338 358
78 78 76 71 63 52 46 42 40 37 24 15 14 8 360 356 355 352 360 354 348 347 348 356 357 349 341 335 333 347 10 345 343 340 337 330 332 359
79 77 69 62 56 47 38 33 27 23 12 1 9 0 354 349 348 343 348 346 328 336 339 352 2 316 309 310 317 342 9 37 344 328 330 323 319 309
75 74 64 51 45 35 28 17 12 17 9 357 0 349 345 343 341 336 338 335 334 337 336 339 338 321 324 330 329 332 339 341 194 178 237 319 328 329
61 52 50 43 38 22 13 11 7 7 1 351 347 339 339 338 332 333 334 332 334 337 334 334 335 333 332 330 327 329 334 334 332 324 282 188 202 225
Height
1554 1555 1556 1556 1557 1557 1557 1558 1559 1557 1557 1557 1557 1557 1557 1557 1556 1555 1555 1554 1554 1555 1555 1555 1556 1556 1556 1556 1556 1557 1557 1557 1557 1557 1557 1557 1557 1557
1550 1550 1551 1552 1552 1553 1553 1553 1553 1554 1553 1553 1553 1553 1553 1553 1552 1551 1551 1550 1550 1550 1550 1550 1551 1551 1551 1551 1551 1551 1551 1551 1551 1551 1551 1551 1551 1551
1546 1547 1547 1547 1548 1548 1548 1548 1549 1549 1548 1548 1549 1549 1548 1548 1548 1548 1547 1547 1546 1545 1546 1546 1546 1546 1546 1546 1546 1546 1546 1546 1546 1546 1545 1545 1545 1545
1543 1544 1544 1544 1544 1544 1544 1544 1544 1544 1544 1544 1544 1544 1544 1544 1543 1543 1543 1543 1542 1541 1541 1541 1541 1541 1541 1541 1541 1541 1541 1541 1541 1540 1540 1540 1539 1539
1540 1540 1541 1541 1541 1541 1540 1540 1540 1540 1540 1540 1540 1539 1539 1540 1539 1539 1539 1538 1538 1537 1537 1537 1536 1536 1536 1536 1536 1536 1536 1536 1535 1535 1535 1534 1534 1534
1537 1538 1538 1538 1538 1537 1537 1537 1537 1537 1536 1536 1536 1536 1535 1535 1535 1535 1535 1535 1535 1535 1534 1533 1533 1532 1532 1532 1532 1532 1532 1531 1531 1531 1530 1530 1529 1529
1536 1536 1536 1535 1535 1535 1534 1534 1534 1534 1533 1533 1532 1532 1532 1532 1532 1532 1532 1532 1531 1531 1531 1531 1531 1530 1529 1528 1528 1528 1528 1527 1527 1527 1527 1526 1526 1526
1534 1535 1535 1534 1533 1533 1533 1532 1532 1531 1531 1531 1531 1530 1530 1530 1530 1530 1530 1530 1529 1529 1529 1529 1529 1528 1527 1526 1525 1525 1525 1524 1524 1524 1523 1523 1522 1522
1534 1534 1534 1533 1533 1532 1532 1531 1530 1530 1530 1530 1529 1529 1529 1528 1528 1528 1528 1528 1527 1527 1527 1527 1527 1526 1525 1524 1523 1523 1522 1522 1521 1521 1520 1520 1519 1519
1533 1533 1533 1532 1532 1532 1531 1531 1530 1529 1529 1529 1529 1528 1528 1527 1527 1528 1527 1527 1527 1526 1526 1526 1525 1524 1524 1523 1522 1521 1520 1520 1519 1518 1517 1517 1516 1515
1533 1533 1532 1532 1532 1531 1531 1530 1530 1530 1530 1529 1529 1529 1528 1528 1527 1528 1528 1528 1527 1526 1525 1525 1524 1523 1522 1522 1520 1519 1518 1517 1516 1515 1514 1514 1513 1512
1533 1533 1532 1532 1532 1532 1532 1531 1531 1531 1531 1531 1530 1530 1530 1529 1528 1527 1528 1528 1527 1526 1524 1524 1523 1522 1522 1521 1520 1519 1517 1516 1514 1513 1512 1511 1510 1509
1534 1533 1533 1533 1533 1533 1533 1532 1532 1533 1533 1533 1533 1532 1531 1530 1529 1528 1527 1527 1526 1526 1525 1523 1523 1522 1521 1520 1519 1518 1517 1515 1513 1512 1510 1508 1507 1507
1534 1535 1535 1535 1535 1534 1534 1534 1534 1534 1535 1535 1534 1534 1533 1532 1530 1529 1527 1526 1526 1525 1523 1522 1522 1521 1520 1519 1518 1517 1516 1514 1512 1511 1509 1507 1506 1505
1536 1536 1536 1537 1537 1537 1536 1536 1536 1537 1537 1536 1536 1535 1534 1533 1532 1530 1529 1528 1527 1525 1524 1522 1522 1521 1520 1519 1518 1516 1515 1513 1512 1510 1508 1507 1505 1504
1538 1539 1539 1539 1539 1539 1538 1538 1538 1538 1538 1538 1537 1536 1536 1535 1534 1532 1531 1530 1529 1527 1524 1522 1521 1520 1520 1518 1517 1515 1514 1512 1511 1509 1507 1506 1505 1503
1540 1541 1542 1542 1542 1541 1541 1540 1540 1540 1539 1539 1538 1537 1537 1536 1535 1533 1532 1530 1529 1528 1526 1523 1522 1520 1518 1517 1517 1515 1513 1512 1510 1508 1506 1505 1504 1503
1543 1543 1543 1543 1543 1543 1542 1542 1542 1541 1540 1540 1539 1538 1537 1536 1535 1534 1532 1531 1529 1528 1526 1524 1522 1520 1519 1517 1516 1515 1513 1511 1510 1507 1506 1505 1504 1502
1544 1544 1544 1544 1545 1545 1544 1544 1543 1542 1541 1541 1540 1539 1538 1536 1535 1534 1533 1531 1530 1528 1526 1524 1522 1521 1519 1517 1515 1514 1512 1511 1509 1507 1506 1504 1503 1501
1546 1546 1546 1546 1546 1546 1545 1545 1544 1543 1542 1541 1540 1539 1538 1537 1535 1534 1533 1531 1530 1528 1526 1524 1522 1520 1519 1518 1516 1514 1511 1510 1508 1506 1505 1503 1502 1500
1547 1548 1548 1547 1547 1547 1546 1545 1544 1543 1542 1541 1540 1539 1538 1536 1535 1534 1533 1531 1529 1528 1526 1524 1522 1520 1518 1517 1515 1513 1511 1509 1507 1505 1503 1502 1500 1499
1549 1549 1548 1548 1547 1547 1546 1546 1545 1544 1542 1542 1540 1539 1538 1536 1535 1534 1532 1531 1529 1527 1525 1524 1521 1520 1518 1516 1514 1512 1510 1508 1506 1503 1501 1501 1499 1497
1549 1549 1549 1548 1547 1547 1546 1546 1545 1544 1542 1541 1540 1539 1537 1536 1534 1533 1532 1530 1528 1527 1525 1523 1521 1519 1517 1516 1514 1512 1510 1507 1505 1503 1501 1499 1498 1496